Location: Seattle
(47.6064°N, 122.3308°W)
Time: 01:48:55
(UTC-08:00)

Tiros 1 - Pass Details

Date: 29 November 2020
Orbit: 630 x 663 km, 48.4° (Epoch: 28 January)

Event Time Altitude Azimuth Distance (km) Brightness Sun altitude
Rises 13:37:11 0° 184° (S) 2,980 11.9 17.2°
Reaches altitude 10° 13:41:16 10° 150° (SSE) 2,074 10.3 16.9°
Maximum altitude 13:42:39 11° 133° (SE) 1,997 10.0 16.8°
Drops below altitude 10° 13:44:03 10° 116° (ESE) 2,077 9.8 16.7°
Sets 13:48:09 0° 82° (E) 2,991 10.2 16.4°
